Precipitable_Water
0.61 0.61 0.60 0.58 0.57 0.55 0.59 0.61 0.55 0.50 0.45 0.38 0.41 0.44 0.41 0.41 0.38 0.34 0.35 0.42 0.32 0.25 0.28 0.28 0.25 0.19 0.20 0.20 0.14 0.17 0.17 0.17 0.16 0.13 0.13 0.15 0.17 0.23 0.22 0.25 0.25 0.24 0.22 0.21 0.22 0.19 0.17 0.36 0.36 0.28 0.35 0.41 0.42 0.43
0.60 0.60 0.58 0.57 0.57 0.56 0.59 0.58 0.57 0.50 0.47 0.42 0.44 0.39 0.36 0.39 0.36 0.34 0.29 0.42 0.41 0.29 0.27 0.33 0.31 0.28 0.25 0.23 0.17 0.19 0.16 0.19 0.19 0.13 0.14 0.18 0.19 0.24 0.22 0.19 0.32 0.23 0.28 0.24 0.26 0.24 0.35 0.38 0.36 0.41 0.43 0.41 0.42 0.43
0.60 0.56 0.55 0.58 0.55 0.53 0.56 0.56 0.54 0.49 0.46 0.44 0.43 0.37 0.35 0.39 0.39 0.36 0.34 0.38 0.35 0.27 0.27 0.25 0.22 0.26 0.27 0.24 0.26 0.16 0.22 0.24 0.20 0.24 0.18 0.19 0.19 0.26 0.20 0.23 0.25 0.31 0.37 0.29 0.29 0.32 0.34 0.37 0.40 0.42 0.43 0.41 0.43 0.43
0.56 0.55 0.55 0.53 0.52 0.52 0.52 0.54 0.54 0.50 0.47 0.46 0.43 0.37 0.34 0.40 0.42 0.39 0.33 0.39 0.32 0.27 0.19 0.22 0.33 0.27 0.31 0.28 0.25 0.28 0.26 0.28 0.26 0.23 0.17 0.16 0.17 0.29 0.26 0.28 0.24 0.28 0.32 0.30 0.29 0.33 0.36 0.37 0.40 0.41 0.42 0.43 0.41 0.41
0.55 0.54 0.54 0.52 0.51 0.48 0.49 0.52 0.55 0.50 0.49 0.52 0.42 0.38 0.37 0.42 0.43 0.41 0.39 0.42 0.39 0.24 0.16 0.21 0.29 0.31 0.32 0.31 0.29 0.30 0.27 0.25 0.23 0.18 0.14 0.14 0.20 0.28 0.32 0.30 0.25 0.29 0.27 0.25 0.25 0.33 0.33 0.35 0.41 0.43 0.40 0.39 0.40 0.38
0.54 0.54 0.54 0.52 0.51 0.47 0.48 0.51 0.53 0.49 0.51 0.50 0.48 0.44 0.40 0.43 0.43 0.34 0.24 0.36 0.41 0.35 0.21 0.16 0.30 0.31 0.33 0.34 0.33 0.31 0.31 0.29 0.27 0.22 0.18 0.17 0.23 0.28 0.24 0.22 0.30 0.31 0.33 0.36 0.31 0.38 0.38 0.39 0.40 0.41 0.39 0.39 0.39 0.38
0.55 0.55 0.54 0.53 0.50 0.47 0.48 0.49 0.47 0.48 0.50 0.47 0.47 0.42 0.43 0.43 0.40 0.28 0.25 0.35 0.41 0.35 0.19 0.17 0.21 0.31 0.34 0.34 0.34 0.33 0.34 0.31 0.30 0.26 0.21 0.17 0.21 0.29 0.27 0.23 0.30 0.30 0.32 0.35 0.39 0.37 0.34 0.38 0.35 0.40 0.39 0.38 0.37 0.36
0.56 0.57 0.55 0.53 0.50 0.46 0.46 0.44 0.46 0.48 0.49 0.47 0.44 0.44 0.44 0.43 0.40 0.34 0.40 0.41 0.37 0.27 0.23 0.15 0.19 0.25 0.35 0.28 0.27 0.36 0.29 0.31 0.30 0.27 0.26 0.19 0.23 0.30 0.24 0.30 0.33 0.30 0.31 0.33 0.36 0.39 0.37 0.39 0.39 0.37 0.38 0.37 0.34 0.33
0.56 0.56 0.54 0.50 0.48 0.46 0.43 0.42 0.42 0.44 0.47 0.45 0.42 0.38 0.31 0.28 0.25 0.32 0.42 0.40 0.38 0.27 0.17 0.18 0.15 0.16 0.35 0.30 0.31 0.31 0.31 0.24 0.32 0.25 0.23 0.22 0.21 0.21 0.28 0.31 0.31 0.31 0.30 0.30 0.36 0.37 0.37 0.36 0.36 0.35 0.35 0.34 0.31 0.30
0.55 0.54 0.53 0.47 0.46 0.43 0.40 0.40 0.42 0.44 0.44 0.38 0.33 0.22 0.15 0.24 0.41 0.40 0.32 0.25 0.25 0.27 0.26 0.18 0.26 0.21 0.29 0.27 0.24 0.24 0.30 0.24 0.19 0.23 0.28 0.21 0.21 0.29 0.34 0.34 0.34 0.33 0.37 0.38 0.32 0.31 0.33 0.33 0.34 0.35 0.34 0.33 0.32 0.30
0.54 0.54 0.52 0.49 0.45 0.42 0.38 0.41 0.45 0.45 0.38 0.29 0.21 0.21 0.32 0.40 0.31 0.26 0.20 0.19 0.21 0.18 0.23 0.23 0.24 0.22 0.33 0.22 0.21 0.27 0.25 0.26 0.19 0.22 0.21 0.21 0.20 0.26 0.32 0.31 0.34 0.39 0.40 0.40 0.40 0.38 0.38 0.37 0.36 0.34 0.32 0.32 0.31 0.30
0.51 0.52 0.53 0.50 0.43 0.40 0.41 0.46 0.45 0.38 0.32 0.27 0.32 0.35 0.36 0.28 0.25 0.20 0.18 0.21 0.20 0.17 0.25 0.24 0.25 0.25 0.29 0.33 0.24 0.29 0.26 0.28 0.20 0.33 0.26 0.20 0.24 0.30 0.30 0.31 0.36 0.37 0.39 0.39 0.40 0.39 0.38 0.37 0.35 0.33 0.31 0.29 0.28 0.28
0.43 0.48 0.51 0.48 0.43 0.44 0.46 0.46 0.44 0.42 0.41 0.40 0.30 0.26 0.25 0.24 0.16 0.15 0.13 0.16 0.18 0.24 0.27 0.27 0.23 0.25 0.30 0.33 0.28 0.28 0.25 0.23 0.31 0.26 0.22 0.23 0.29 0.31 0.31 0.34 0.35 0.36 0.36 0.36 0.36 0.36 0.34 0.32 0.31 0.29 0.28 0.28 0.28 0.25
0.40 0.44 0.49 0.45 0.45 0.47 0.47 0.46 0.43 0.38 0.32 0.27 0.23 0.17 0.19 0.16 0.18 0.18 0.19 0.19 0.26 0.28 0.26 0.27 0.25 0.26 0.29 0.27 0.28 0.20 0.23 0.27 0.21 0.19 0.20 0.27 0.29 0.32 0.34 0.35 0.33 0.32 0.32 0.31 0.29 0.29 0.28 0.28 0.27 0.28 0.26 0.23 0.21 0.19
0.39 0.44 0.48 0.46 0.46 0.48 0.48 0.45 0.40 0.35 0.29 0.25 0.26 0.17 0.19 0.25 0.26 0.28 0.31 0.30 0.32 0.34 0.28 0.25 0.26 0.27 0.25 0.23 0.25 0.24 0.22 0.21 0.24 0.23 0.27 0.31 0.32 0.33 0.32 0.32 0.30 0.30 0.29 0.28 0.28 0.28 0.27 0.27 0.24 0.21 0.20 0.19 0.17 0.16
0.43 0.49 0.47 0.47 0.47 0.48 0.47 0.43 0.38 0.34 0.30 0.27 0.27 0.24 0.26 0.24 0.24 0.26 0.28 0.27 0.34 0.33 0.32 0.28 0.22 0.19 0.19 0.23 0.24 0.23 0.22 0.19 0.23 0.27 0.28 0.30 0.30 0.30 0.31 0.31 0.30 0.29 0.28 0.28 0.28 0.27 0.23 0.21 0.19 0.17 0.17 0.16 0.15 0.14
0.48 0.42 0.50 0.47 0.48 0.47 0.46 0.37 0.33 0.26 0.25 0.25 0.23 0.29 0.29 0.27 0.25 0.26 0.29 0.28 0.34 0.30 0.24 0.25 0.19 0.20 0.28 0.23 0.23 0.27 0.24 0.26 0.28 0.29 0.30 0.30 0.30 0.30 0.30 0.29 0.28 0.28 0.28 0.28 0.23 0.21 0.20 0.19 0.19 0.18 0.16 0.15 0.14 0.15
0.44 0.46 0.45 0.46 0.47 0.44 0.39 0.34 0.27 0.25 0.20 0.25 0.24 0.26 0.28 0.28 0.26 0.27 0.30 0.34 0.28 0.27 0.28 0.26 0.32 0.25 0.24 0.22 0.23 0.28 0.30 0.29 0.29 0.28 0.30 0.31 0.31 0.31 0.30 0.28 0.29 0.29 0.26 0.22 0.21 0.21 0.20 0.20 0.19 0.18 0.17 0.16 0.16 0.16
0.46 0.46 0.45 0.44 0.39 0.32 0.27 0.28 0.31 0.23 0.25 0.28 0.30 0.31 0.28 0.27 0.30 0.32 0.31 0.32 0.31 0.34 0.33 0.31 0.26 0.24 0.25 0.30 0.30 0.30 0.29 0.28 0.26 0.27 0.28 0.30 0.31 0.30 0.28 0.30 0.28 0.24 0.22 0.22 0.21 0.21 0.21 0.21 0.20 0.19 0.18 0.18 0.15 0.16
0.44 0.44 0.44 0.43 0.40 0.30 0.23 0.25 0.35 0.29 0.24 0.27 0.29 0.27 0.27 0.27 0.29 0.30 0.29 0.28 0.27 0.28 0.27 0.25 0.26 0.30 0.31 0.33 0.34 0.32 0.31 0.30 0.28 0.25 0.26 0.29 0.30 0.30 0.27 0.25 0.24 0.23 0.22 0.22 0.21 0.22 0.21 0.19 0.18 0.17 0.17 0.17 0.16 0.14
0.45 0.45 0.44 0.40 0.35 0.33 0.31 0.26 0.26 0.30 0.30 0.26 0.28 0.28 0.27 0.28 0.26 0.26 0.26 0.29 0.24 0.24 0.23 0.27 0.30 0.34 0.39 0.39 0.37 0.35 0.33 0.31 0.27 0.26 0.26 0.26 0.30 0.30 0.27 0.25 0.24 0.23 0.21 0.21 0.21 0.21 0.19 0.16 0.16 0.16 0.16 0.16 0.15 0.14
0.41 0.44 0.38 0.37 0.29 0.31 0.31 0.31 0.27 0.30 0.27 0.27 0.28 0.29 0.25 0.22 0.22 0.25 0.31 0.25 0.23 0.24 0.27 0.29 0.32 0.34 0.34 0.32 0.32 0.32 0.31 0.30 0.29 0.28 0.28 0.29 0.29 0.29 0.26 0.23 0.22 0.21 0.21 0.21 0.21 0.18 0.17 0.18 0.17 0.17 0.16 0.16 0.15 0.15
0.39 0.37 0.32 0.30 0.25 0.26 0.26 0.32 0.24 0.28 0.23 0.25 0.28 0.24 0.24 0.22 0.25 0.30 0.23 0.25 0.25 0.30 0.33 0.34 0.35 0.36 0.34 0.34 0.33 0.32 0.31 0.29 0.27 0.27 0.28 0.29 0.31 0.30 0.26 0.24 0.23 0.21 0.20 0.21 0.22 0.19 0.18 0.17 0.17 0.16 0.15 0.14 0.14 0.14
0.39 0.29 0.26 0.24 0.25 0.21 0.29 0.27 0.29 0.27 0.27 0.25 0.23 0.21 0.22 0.22 0.25 0.21 0.19 0.22 0.26 0.30 0.31 0.32 0.33 0.32 0.32 0.31 0.29 0.29 0.30 0.30 0.28 0.28 0.30 0.30 0.29 0.28 0.27 0.24 0.24 0.23 0.23 0.22 0.21 0.20 0.17 0.16 0.16 0.14 0.14 0.14 0.13 0.13
0.24 0.24 0.27 0.23 0.28 0.24 0.21 0.21 0.22 0.23 0.21 0.23 0.22 0.21 0.22 0.26 0.20 0.19 0.18 0.22 0.26 0.28 0.29 0.31 0.31 0.30 0.27 0.27 0.28 0.30 0.32 0.31 0.29 0.28 0.30 0.31 0.30 0.29 0.27 0.26 0.23 0.23 0.23 0.20 0.18 0.17 0.16 0.15 0.14 0.14 0.14 0.13 0.12 0.11
0.20 0.26 0.24 0.25 0.25 0.24 0.23 0.20 0.21 0.22 0.22 0.22 0.22 0.25 0.26 0.23 0.20 0.17 0.21 0.25 0.27 0.29 0.29 0.29 0.29 0.28 0.27 0.28 0.28 0.29 0.30 0.33 0.32 0.29 0.31 0.32 0.31 0.29 0.26 0.23 0.20 0.19 0.20 0.18 0.16 0.14 0.14 0.14 0.14 0.13 0.13 0.12 0.11 0.11
0.20 0.23 0.27 0.32 0.29 0.28 0.24 0.25 0.26 0.24 0.22 0.21 0.23 0.24 0.23 0.18 0.17 0.22 0.28 0.31 0.30 0.32 0.32 0.32 0.30 0.29 0.28 0.29 0.31 0.33 0.34 0.34 0.32 0.31 0.33 0.34 0.33 0.32 0.29 0.24 0.20 0.19 0.18 0.17 0.16 0.15 0.13 0.13 0.12 0.12 0.12 0.11 0.11 0.10
0.24 0.26 0.22 0.26 0.26 0.27 0.23 0.23 0.22 0.21 0.23 0.25 0.25 0.20 0.19 0.20 0.20 0.27 0.29 0.32 0.33 0.34 0.32 0.33 0.33 0.32 0.31 0.32 0.33 0.33 0.33 0.33 0.33 0.34 0.34 0.33 0.33 0.32 0.29 0.26 0.23 0.20 0.18 0.17 0.14 0.12 0.11 0.11 0.11 0.12 0.11 0.10 0.10 0.10
0.23 0.27 0.26 0.23 0.25 0.26 0.25 0.23 0.23 0.25 0.28 0.27 0.24 0.22 0.24 0.27 0.30 0.30 0.32 0.33 0.34 0.33 0.30 0.30 0.30 0.32 0.32 0.33 0.34 0.34 0.33 0.32 0.30 0.28 0.27 0.27 0.27 0.27 0.27 0.26 0.23 0.20 0.17 0.13 0.12 0.11 0.11 0.11 0.12 0.11 0.11 0.10 0.09 0.09
0.22 0.28 0.26 0.25 0.22 0.21 0.24 0.27 0.26 0.28 0.30 0.29 0.29 0.27 0.28 0.29 0.31 0.32 0.32 0.32 0.31 0.31 0.31 0.30 0.30 0.30 0.29 0.29 0.29 0.30 0.32 0.32 0.32 0.30 0.27 0.26 0.26 0.26 0.25 0.21 0.18 0.15 0.13 0.11 0.11 0.11 0.13 0.13 0.12 0.11 0.10 0.09 0.09 0.08
0.29 0.28 0.25 0.25 0.24 0.26 0.27 0.29 0.29 0.29 0.29 0.28 0.28 0.26 0.25 0.27 0.29 0.31 0.31 0.31 0.31 0.31 0.30 0.29 0.29 0.29 0.29 0.28 0.28 0.28 0.27 0.30 0.31 0.31 0.29 0.27 0.25 0.22 0.20 0.17 0.15 0.14 0.12 0.11 0.11 0.12 0.12 0.11 0.10 0.09 0.08 0.08 0.07 0.06
0.27 0.26 0.25 0.23 0.24 0.27 0.28 0.26 0.26 0.25 0.25 0.24 0.24 0.25 0.25 0.25 0.23 0.26 0.29 0.30 0.29 0.28 0.28 0.29 0.28 0.28 0.30 0.30 0.30 0.31 0.31 0.30 0.30 0.30 0.28 0.25 0.23 0.20 0.18 0.16 0.14 0.12 0.11 0.11 0.12 0.12 0.11 0.09 0.08 0.08 0.07 0.06 0.06 0.05
0.25 0.25 0.25 0.24 0.23 0.24 0.26 0.26 0.24 0.24 0.24 0.23 0.23 0.24 0.24 0.23 0.21 0.24 0.28 0.30 0.29 0.28 0.28 0.29 0.29 0.30 0.30 0.29 0.29 0.29 0.29 0.29 0.30 0.28 0.27 0.25 0.21 0.18 0.16 0.14 0.12 0.11 0.12 0.12 0.12 0.10 0.09 0.08 0.08 0.07 0.06 0.06 0.05 0.05
Wind_Speed
30 33 30 27 25 24 22 21 21 19 20 20 19 18 16 14 13 14 13 12 13 11 10 9 8 8 6 5 4 3 2 4 3 3 3 4 2 3 3 2 2 1 3 3 5 6 5 9 2 3 4 6 6 8
30 29 29 27 26 25 23 21 22 20 20 21 19 17 16 14 13 14 13 12 12 11 11 9 8 7 6 5 4 1 2 2 3 3 4 3 3 2 0 1 3 2 1 1 1 2 2 3 3 4 5 7 6 7
29 28 27 26 26 25 24 22 22 21 21 21 19 17 16 14 12 13 14 12 12 11 9 8 7 7 5 4 4 2 3 2 3 3 3 3 4 5 2 1 1 2 4 4 3 4 6 6 5 6 7 8 7 7
31 27 26 26 26 25 24 23 22 21 21 21 19 18 17 15 13 13 13 12 11 10 9 8 7 6 5 4 3 2 2 2 3 4 3 3 6 6 5 2 2 1 0 1 2 3 4 7 7 7 7 7 6 5
30 28 28 27 27 26 24 22 22 22 21 21 19 18 17 16 14 12 12 11 10 9 9 9 7 6 7 5 4 3 4 5 5 5 4 5 6 7 6 4 2 0 0 1 2 0 3 5 6 7 8 7 7 6
29 30 29 28 28 26 23 22 22 22 21 21 19 18 17 16 14 11 10 9 7 8 7 7 7 6 6 6 6 6 7 6 6 6 7 6 7 9 8 7 4 2 1 1 3 3 4 5 5 6 7 7 6 5
31 31 30 30 28 25 23 23 22 22 21 20 19 18 16 14 14 11 10 10 9 8 6 5 5 6 7 6 7 8 9 9 9 9 8 7 8 10 10 9 7 3 2 2 4 4 4 4 4 5 6 5 5 4
34 32 30 30 27 25 23 22 23 22 21 19 18 17 15 13 12 10 8 8 8 8 6 6 7 6 7 8 8 10 10 11 11 10 9 9 9 10 9 9 8 5 3 2 4 5 5 7 6 5 3 2 2 2
34 32 32 29 27 25 22 22 22 22 21 19 18 15 13 12 11 10 8 7 6 7 7 6 6 7 7 7 8 9 10 10 10 10 11 10 10 10 9 10 9 6 4 5 6 6 6 6 6 4 2 1 1 3
32 33 30 28 26 24 22 22 23 22 21 18 15 12 11 12 12 9 7 6 6 6 6 6 6 6 5 7 6 5 6 5 4 7 8 10 11 10 9 7 5 4 5 6 8 9 9 7 6 4 3 3 3 4
31 31 29 27 25 22 22 24 24 22 19 15 13 11 13 13 10 7 6 6 6 6 6 7 8 7 7 4 3 2 0 1 2 5 10 10 10 10 9 6 4 3 3 5 9 9 9 8 7 6 4 4 4 4
30 29 28 27 24 23 25 26 24 19 16 15 14 15 13 10 8 7 7 6 6 6 5 5 6 7 5 5 4 2 1 3 3 9 8 7 8 10 8 7 5 5 5 6 7 8 7 6 5 4 3 3 4 5
28 28 28 27 26 25 25 25 21 20 18 15 13 12 10 8 8 8 8 6 5 5 5 4 3 7 7 6 4 3 2 4 5 6 7 6 8 8 8 8 7 6 6 6 6 6 6 4 3 2 2 3 4 4
26 28 29 29 28 26 25 24 22 19 16 13 11 11 9 8 8 8 7 6 5 4 4 5 7 9 7 6 4 4 4 4 4 5 5 6 9 9 9 9 8 7 7 6 5 4 3 2 1 1 1 1 2 4
26 28 30 30 29 27 25 22 20 18 14 11 10 9 10 8 8 7 6 5 5 5 5 9 9 8 7 6 5 4 3 3 3 4 5 8 10 10 10 9 8 7 6 5 4 3 3 3 3 1 1 3 6 8
27 30 28 30 30 27 24 20 18 17 13 10 10 8 8 8 7 6 5 5 5 7 10 10 10 7 7 5 4 4 2 3 3 4 6 9 9 9 9 8 7 6 5 5 5 5 5 3 1 2 5 7 10 12
29 25 33 31 29 25 22 18 17 15 13 10 9 9 9 8 7 8 6 6 8 11 12 10 10 9 6 5 4 4 4 3 3 4 6 8 9 9 8 7 6 6 7 7 6 5 2 0 2 5 8 11 12 15
24 33 31 30 26 22 18 17 16 13 12 12 9 9 9 8 7 7 7 9 11 13 13 10 8 8 7 6 4 4 3 2 3 5 6 7 7 7 7 8 8 8 8 7 5 3 1 3 6 8 10 12 15 17
30 30 29 26 22 18 16 17 16 11 12 11 10 9 7 7 7 8 8 11 14 14 12 11 8 8 8 6 5 3 4 4 4 5 6 6 7 7 8 9 10 9 8 6 4 3 4 7 9 11 14 16 19 22
29 27 26 22 20 16 14 15 16 11 11 12 10 9 8 7 7 8 10 13 14 14 13 12 10 7 7 6 5 4 4 5 5 5 6 6 7 8 9 10 9 8 6 5 5 5 7 10 12 14 16 19 22 24
26 23 22 20 17 13 12 15 16 11 10 10 10 8 8 8 8 8 12 14 15 14 13 13 11 9 8 7 6 6 6 7 6 7 7 7 8 9 10 9 9 7 6 6 7 9 11 13 15 17 20 23 25 27
21 22 19 17 14 12 11 15 15 12 10 9 9 7 7 8 8 10 12 14 13 14 13 12 10 9 8 7 7 7 7 7 7 7 7 8 9 9 10 10 9 8 8 9 9 11 13 15 17 20 23 25 28 30
21 18 16 15 13 11 11 14 14 12 9 9 7 6 7 8 10 10 11 13 12 13 12 11 11 10 9 8 8 8 8 9 8 8 8 8 9 9 9 9 9 9 9 11 12 13 15 17 19 22 25 27 29 31
19 16 14 13 13 12 13 13 12 10 8 8 7 6 6 9 10 10 11 12 12 11 11 11 11 10 9 9 9 9 10 10 9 8 9 9 9 9 9 10 10 11 12 12 13 15 17 19 22 25 27 29 31 32
15 14 12 12 12 13 13 12 11 9 9 8 7 6 7 8 9 11 12 11 11 11 11 10 10 10 10 10 10 11 11 11 11 10 10 10 9 9 9 9 10 11 12 13 15 17 19 22 24 26 28 30 32 33
13 13 12 13 13 12 11 10 10 9 8 8 8 7 7 8 9 10 10 10 11 11 11 11 11 10 10 11 12 12 12 12 11 10 10 11 11 10 10 11 11 13 14 16 17 19 21 23 25 27 30 31 32 33
12 11 13 12 11 10 8 8 7 6 8 8 8 8 8 9 9 9 9 9 9 9 10 10 10 10 10 10 11 12 12 11 11 11 11 11 12 12 13 13 14 15 15 16 18 20 22 24 26 28 30 31 33 34
13 12 12 12 11 11 9 9 8 9 9 8 8 9 9 10 9 9 9 9 9 9 8 9 9 8 9 10 12 12 11 11 11 10 10 10 12 13 14 14 14 14 16 18 20 21 23 24 26 28 30 31 33 34
15 14 13 12 11 11 12 12 11 11 10 10 10 9 9 10 10 10 9 9 9 9 9 9 9 8 8 10 11 12 13 13 12 12 12 13 13 13 14 14 14 15 17 18 20 21 23 25 27 28 30 31 33 34
16 15 13 14 15 16 14 13 13 13 12 13 13 11 11 11 12 11 11 11 12 12 12 11 11 12 12 12 13 13 14 14 14 13 13 14 15 14 14 14 15 15 17 18 19 21 24 26 28 29 30 32 33 34
15 17 15 15 15 15 15 15 14 14 15 15 15 15 15 15 15 15 15 15 15 14 14 13 13 14 13 14 15 15 15 15 14 14 14 14 13 13 13 14 15 15 17 18 20 23 24 26 28 29 31 32 33 34
17 18 17 16 16 17 17 17 17 17 17 17 18 17 17 16 18 18 18 18 18 18 18 17 16 16 16 15 15 16 16 16 15 15 14 13 12 12 13 13 14 15 17 19 21 23 24 26 27 29 31 31 32 32
19 19 18 18 17 17 17 17 17 17 18 18 19 19 19 19 20 19 18 19 20 20 20 19 18 17 17 16 16 16 16 15 14 14 13 12 12 12 12 13 14 16 17 19 21 23 24 26 28 29 30 30 30 30
Wind_Direction
184 186 189 189 188 185 186 183 182 178 178 175 174 173 173 173 173 176 174 172 174 171 172 171 173 173 175 181 194 232 263 308 315 314 295 288 285 298 297 271 310 104 277 232 236 247 270 339 347 139 154 147 158 162
182 184 184 186 186 185 181 182 181 179 175 175 174 174 175 173 174 174 174 173 172 174 175 176 172 167 172 187 185 245 235 291 284 307 299 273 245 240 327 108 43 58 24 296 35 110 53 66 82 103 124 140 138 146
174 177 180 180 180 181 182 179 177 175 175 176 174 173 172 169 166 169 172 174 172 171 169 175 181 190 193 202 209 231 278 298 322 295 281 246 218 200 206 116 87 70 59 96 111 77 65 69 99 101 106 124 120 116
181 181 181 180 179 178 177 177 177 176 176 176 176 175 173 169 165 165 170 174 172 174 177 188 186 189 197 202 223 252 239 296 307 320 283 243 219 203 210 197 103 71 232 86 97 101 91 81 88 107 111 114 119 113
185 185 182 180 177 176 176 177 176 176 175 175 173 173 173 172 167 163 166 169 177 187 188 192 206 216 215 221 239 263 277 286 287 289 289 250 230 209 204 194 163 42 360 193 184 71 103 100 95 102 105 111 113 106
182 180 178 177 174 173 173 173 173 174 175 176 176 175 176 177 178 179 180 184 183 185 188 203 221 229 226 236 252 265 274 279 280 275 262 259 233 210 209 210 199 177 115 122 163 131 123 118 109 106 106 103 96 88
177 175 173 171 171 172 171 171 172 171 171 171 172 173 175 179 183 186 191 196 198 196 201 211 232 240 238 249 267 273 272 276 275 267 255 246 232 211 210 213 199 185 180 183 175 158 167 181 148 128 112 101 93 86
175 174 172 172 171 171 171 173 172 171 170 169 170 171 174 175 178 188 189 191 196 201 214 228 245 243 249 262 271 277 276 279 272 256 245 232 225 209 209 201 195 196 195 198 207 209 172 165 153 150 131 114 76 49
168 167 168 168 170 170 169 169 170 171 170 169 169 172 177 182 186 187 186 188 196 210 222 234 231 249 260 270 278 285 282 280 268 249 234 215 210 201 200 188 192 203 235 220 200 187 184 185 178 178 184 241 313 320
166 169 167 168 168 169 170 171 169 168 167 168 173 182 185 186 177 183 194 205 214 224 233 236 239 255 260 280 287 295 300 272 243 226 197 195 190 187 179 182 197 226 236 217 201 202 196 197 206 223 252 273 285 297
170 171 172 171 172 173 173 171 168 167 169 175 179 181 172 172 183 193 200 207 219 229 235 243 242 255 261 254 231 232 165 82 177 178 163 171 177 181 182 180 188 200 208 208 202 197 200 200 207 220 233 258 278 288
170 172 175 175 174 170 169 168 168 172 175 176 170 166 170 181 191 197 202 213 223 230 226 238 254 232 219 184 164 150 107 138 166 152 159 166 175 171 175 170 166 164 150 141 146 158 170 178 189 202 223 253 279 293
173 175 175 174 172 169 168 169 171 168 165 167 169 178 185 191 195 196 202 217 226 222 230 233 220 179 166 160 156 148 157 156 144 152 163 168 167 167 167 165 160 156 151 148 145 148 152 160 181 226 246 281 293 305
172 175 175 174 172 171 169 170 170 172 173 177 181 181 193 197 207 200 200 203 218 224 211 186 162 158 161 152 158 158 160 151 150 170 184 174 169 166 165 166 162 159 152 151 151 157 167 182 201 223 194 274 308 312
173 173 171 172 172 171 170 172 175 176 178 181 186 195 196 197 193 191 199 203 210 192 182 164 160 158 158 147 152 153 161 177 180 206 192 174 166 163 164 164 164 165 169 171 177 177 170 157 147 147 303 312 315 314
170 167 171 170 170 170 172 173 176 180 182 186 193 190 190 188 192 194 203 206 200 184 165 162 160 158 166 162 167 171 168 175 160 159 165 161 163 166 170 174 176 180 181 175 162 155 151 149 173 309 317 317 317 316
165 172 168 168 169 170 173 177 180 182 188 192 194 193 193 197 199 209 211 206 187 172 167 165 169 176 164 172 173 169 165 169 164 164 163 167 171 176 181 186 189 180 169 164 159 157 160 249 320 322 321 319 319 319
164 163 164 166 168 170 177 181 181 186 193 195 190 194 198 207 209 212 209 196 180 177 175 175 178 181 178 177 187 186 174 173 173 170 172 175 180 187 193 189 180 175 170 169 172 185 247 306 317 322 326 325 323 322
160 163 165 168 172 176 180 184 184 189 191 190 191 195 200 211 214 207 202 190 185 182 184 185 192 194 197 201 203 222 221 207 200 194 192 197 193 188 183 178 176 175 179 189 208 252 287 302 313 317 318 321 322 322
159 162 165 170 173 176 178 182 184 185 188 192 194 202 212 215 208 209 199 191 189 190 193 193 193 193 198 212 220 232 220 205 198 199 200 196 193 188 184 183 186 189 200 222 254 278 298 308 313 317 319 321 323 323
157 164 166 170 173 174 180 181 184 186 185 192 198 204 213 211 213 206 197 192 190 195 201 206 210 218 226 236 238 227 214 211 214 207 204 203 202 197 195 199 201 212 231 256 274 290 300 306 311 316 319 321 322 323
161 164 166 171 173 178 185 185 187 188 190 193 193 203 213 215 207 199 190 192 200 206 205 208 216 218 221 227 229 231 223 217 213 208 208 202 204 205 208 211 218 234 252 270 283 293 302 308 312 316 319 321 322 323
158 163 167 171 176 179 180 176 178 181 182 191 197 215 223 213 204 196 199 202 209 210 210 214 217 220 224 232 235 232 221 211 211 215 214 213 213 216 217 224 234 249 266 279 288 296 303 308 313 317 319 321 323 324
159 161 165 172 180 182 175 175 178 182 190 202 212 231 218 204 199 202 207 207 209 209 210 213 213 220 229 232 236 228 219 215 217 222 220 216 220 225 228 239 249 261 276 285 292 299 305 309 314 317 320 322 323 324
163 173 174 177 173 172 180 186 193 200 211 216 221 225 210 200 202 205 206 209 208 208 210 214 220 228 237 239 233 225 221 220 222 226 228 224 225 232 242 253 263 273 279 287 297 302 307 311 314 318 321 322 323 324
173 178 176 173 173 176 179 184 196 207 216 220 220 209 205 200 204 206 204 206 209 210 215 220 226 237 243 236 226 224 223 221 223 228 230 228 233 239 249 259 271 281 286 293 299 303 308 311 315 319 321 323 324 325
187 181 184 185 183 186 195 205 206 211 210 208 205 201 198 203 205 205 206 207 211 216 223 228 234 239 237 233 223 218 218 223 228 229 235 240 247 253 258 268 275 284 291 297 303 306 309 313 316 320 322 324 325 326
195 189 188 195 201 211 211 215 217 218 214 213 204 205 202 203 208 210 214 220 224 225 229 232 237 238 234 222 215 216 221 223 226 232 240 252 258 262 267 275 281 288 295 301 307 311 314 316 319 321 324 325 327 328
208 212 211 217 218 222 227 225 228 226 221 214 212 217 220 220 221 225 230 230 226 227 233 235 239 235 232 224 222 224 224 229 237 247 254 257 263 270 272 276 283 291 298 305 310 314 317 320 322 324 326 327 328 329
220 217 222 228 227 233 238 235 235 233 230 226 227 232 234 235 234 237 238 237 236 238 242 242 241 241 239 233 231 235 240 245 250 252 256 259 263 265 271 278 285 293 301 307 312 316 319 322 324 326 328 329 330 331
226 226 233 235 238 240 238 236 236 235 237 238 240 238 240 244 245 245 245 245 243 243 244 245 246 244 241 239 238 240 247 249 252 257 261 263 260 265 272 279 287 295 303 309 313 318 321 323 326 327 329 330 331 332
236 235 235 239 244 244 243 242 241 241 245 243 244 245 248 248 249 251 251 246 245 245 247 245 244 246 245 245 246 246 248 248 251 253 256 259 262 269 276 282 290 298 306 312 317 320 323 325 327 329 330 332 333 334
239 240 240 241 242 242 242 241 243 247 246 246 246 245 246 247 250 252 254 251 247 244 244 244 243 243 244 246 247 247 246 244 245 247 250 256 264 271 278 286 294 302 309 315 319 322 324 327 329 330 332 333 335 336